Location: Arrodets-la-Barthe
(43.0306°N, 0.2829°E)
Time: 00:41:11
(UTC+00:00)

Iridium 4 Rocket - Pass Details

Date: 02 June 2022
Orbit: 585 x 902 km, 86.9° (Epoch: 03 July)

Event Time Altitude Azimuth Distance (km) Brightness Sun altitude
Rises 22:01:39 0° 360° (N) 3,098 7.7 -19.5°
Reaches altitude 10° 22:03:52 10° 2° (N) 2,222 6.8 -19.7°
Maximum altitude 22:08:50 70° 87° (E) 820 3.5 -20.1°
Enters shadow 22:10:37 42° 158° (SSE) 1,120 3.8 -20.3°
